This is the latest recevied weather packets stored in our database for station/object W4DHW-4. If no packets are shown the sender has not sent any weather packets the latest 10 day(s).
| Time | Temp. | Humidity | Pressure | Rain* | Wind** | Luminosity | Snow |
|---|---|---|---|---|---|---|---|
| 1777822988 | 11.67° C | 40% | 1019.6 hPa | 0 mm | - | 777 W/m² | - |
| 1777822686 | 11.67° C | 42% | 1019.9 hPa | 0 mm | - | 708 W/m² | - |
| 1777822384 | 11.11° C | 41% | 1019.7 hPa | 0 mm | - | 731 W/m² | - |
| 1777822081 | 10.56° C | 43% | 1019.7 hPa | 0 mm | - | 802 W/m² | - |
| 1777821779 | 10.56° C | 42% | 1020.1 hPa | 0 mm | - | 795 W/m² | - |
| 1777821475 | 10.56° C | 44% | 1020 hPa | 0 mm | - | 735 W/m² | - |
| 1777821173 | 10° C | 44% | 1020.1 hPa | 0 mm | - | 96 W/m² | - |
| 1777820870 | 10.56° C | 44% | 1020 hPa | 0 mm | - | 105 W/m² | - |
| 1777820566 | 10° C | 43% | 1020 hPa | 0 mm | - | 231 W/m² | - |
| 1777820263 | 10° C | 43% | 1020.1 hPa | 0 mm | - | 751 W/m² | - |
| 1777819960 | 10.56° C | 45% | 1019.8 hPa | 0 mm | - | 703 W/m² | - |
| 1777819657 | 10° C | 44% | 1020 hPa | 0 mm | - | 677 W/m² | - |
| 1777819356 | 9.44° C | 44% | 1020.2 hPa | 0 mm | - | 729 W/m² | - |
| 1777819052 | 9.44° C | 44% | 1020.1 hPa | 0 mm | - | 778 W/m² | - |
| 1777818749 | 8.89° C | 45% | 1020 hPa | 0 mm | - | 783 W/m² | - |
| 1777818446 | 8.89° C | 44% | 1020.2 hPa | 0 mm | - | 745 W/m² | - |
| 1777818142 | 9.44° C | 45% | 1020.5 hPa | 0 mm | - | 467 W/m² | - |
| 1777817839 | 8.89° C | 45% | 1020.3 hPa | 0 mm | - | 757 W/m² | - |
| 1777817536 | 8.89° C | 46% | 1020.2 hPa | 0 mm | - | 748 W/m² | - |
| 1777817233 | 8.89° C | 47% | 1020.2 hPa | 0 mm | - | 746 W/m² | - |
| 1777816930 | 8.33° C | 45% | 1020.5 hPa | 0 mm | - | 742 W/m² | - |
| 1777816627 | 8.89° C | 48% | 1020.3 hPa | 0 mm | - | 649 W/m² | - |
| 1777816324 | 8.89° C | 46% | 1020.2 hPa | 0 mm | - | 453 W/m² | - |
| 1777816021 | 8.89° C | 46% | 1020 hPa | 0 mm | - | 651 W/m² | - |
| 1777815719 | 9.44° C | 46% | 1019.9 hPa | 0 mm | - | 259 W/m² | - |
* Rain latest hour (hover to see other rain measurements)
** Current wind speed in m/s (hover to see current wind gust speed)